Home > Weather > Sonthofen > Past weeks

Flag for Germany Past Weather in Sonthofen, Bavaria, Germany — Yesterday and Last 2 Weeks

Now
62 °F

Cool.


Feels Like: 62 °F
Forecast: 57 / 77 °F
Wind: 3 mph from South

Location: Bregenz

Current Time: Jul 1, 2016 at 3:01:33 AM

Latest Report: Jul 1, 2016 at 2:00 AM


Visibility: N/A

Pressure: 30.06 "Hg (27.52 "Hg at 748m altitude)

Humidity: 92%

Dew Point: 60 °F

Location of SonthofenLocation

Past Weather in Sonthofen — Graph

°F

Sonthofen Temperature Yesterday

Maximum temperature yesterday: 73 °F (at 5:00 PM)
Minimum temperature yesterday: 63 °F (at 7:00 AM)
Average temperature yesterday: 67 °F

High & Low Weather Summary for the Past Weeks

 TemperatureHumidityPressure
High88 °F (Jun 24, 7:00 PM)98% (Jun 19, 7:00 AM)30.27 "Hg (Jun 19, 7:00 AM)
Low47 °F (Jun 17, 8:00 AM)34% (Jun 28, 7:00 PM)29.58 "Hg (Jun 16, 6:00 AM)
Average65 °F77%30.04 "Hg
* Reported Jun 16 1:00 AM — Jul 1 1:00 AM, Sonthofen, Weather by CustomWeather, © 2016

Note: Actual official high and low records may vary slightly from our data, if they occured in-between our weather recording intervals... More about our weather records

Advertising

Sonthofen Weather History for the Previous 24 Hours

Scroll right to see more
 ConditionsComfort  
Time TempWeatherWind HumidityBarometerVisibility
1:00 AM
Fri, Jul 1
62 °FMild.5 mph93%30.06 "HgN/A
12:00 AM64 °FMild.3 mph90%30.06 "HgN/A
11:00 PM
Thu, Jun 30
64 °FMild.2 mph94%30.06 "HgN/A
10:00 PM65 °FMild.5 mph89%30.05 "HgN/A
9:00 PM70 °FMild.3 mph76%29.99 "HgN/A
8:00 PM69 °FMild.1 mph84%29.98 "HgN/A
7:00 PM71 °FMild.1 mph77%29.97 "HgN/A
6:00 PM73 °FMild.1 mph61%29.97 "HgN/A
5:00 PM73 °FMild.2 mph63%29.96 "HgN/A
4:00 PM72 °FMild.1 mph58%29.98 "HgN/A
3:00 PM72 °FMild.2 mph70%29.98 "HgN/A
2:00 PM71 °FPassing clouds.2 mph71%29.98 "Hg9 mi
1:00 PM69 °FMild.2 mph78%30.01 "HgN/A
12:00 PM67 °FMild.No wind82%30.01 "HgN/A
11:00 AM67 °FSprinkles. Overcast.1 mph86%30.01 "Hg4 mi
10:00 AM67 °FMild.2 mph82%30.00 "HgN/A
9:00 AM65 °FMild.6 mph88%29.99 "HgN/A
8:00 AM63 °FOvercast.5 mph89%29.98 "Hg9 mi
7:00 AM63 °FThunderstorms. Overcast.3 mph92%30.01 "Hg2 mi
6:00 AM64 °FFog.1 mph88%30.01 "HgN/A
5:00 AM65 °FMild.3 mph80%29.98 "HgN/A
4:00 AM64 °FMild.1 mph82%29.97 "HgN/A
3:00 AM67 °FMild.6 mph68%29.93 "HgN/A
Weather by CustomWeather, © 2016

See weather overviewHow to use our weather pages